Flag for Bangladesh Weather past 2 weeks in Jessore, Bangladesh

Now
59 °F

Clear.


Feels Like: 57 °F
Forecast: 76 / 99 °F
Wind: 10 mph from Southwest

Location: Kunming Airport

Current Time: Apr 19, 2015 at 3:38:35 AM

Latest Report: Apr 19, 2015 at 2:00 AM


Visibility: 10 mi

Pressure: 30.04 "Hg

Humidity: 77%

Dew point: 52 °F

Location of JessoreLocation

Historic Weather in Jessore — Graph

°F

Jessore temperature yesterday

Maximum temperature yesterday: 77 °F (at 10:00 AM)
Minimum temperature yesterday: 61 °F (at 3:00 AM)
Average temperature yesterday: 68 °F

Past Weeks' High & Low Weather Summary

 TemperatureHumidityPressure
High82 °F (Apr 17, 12:00 PM)100% (Apr 8, 5:00 AM)30.51 "Hg (Apr 8, 5:00 AM)
Low43 °F (Apr 12, 2:00 AM)14% (Apr 15, 12:00 PM)29.86 "Hg (Apr 4, 2:00 AM)
Average61 °F60%30.16 "Hg
* Reported Apr 4 2:00 AM — Apr 19 2:00 AM, Jessore, Weather by CustomWeather, © 2015

Note: Actual official high and low records may vary slightly from our data, if they occured in-between our weather recording intervals... More about our weather records

Advertising

Jessore weather history for previous 24 hours

 ConditionsComfort  
Time TempWeatherWind HumidityBarometerVisibility
2:00 AM
Sun, Apr 19
59 °FClear.10 mph77%30.04 "Hg10 mi
1:00 AM61 °FClear.10 mph72%30.04 "Hg10 mi
12:00 AM61 °FClear.10 mph68%30.07 "Hg10 mi
11:00 PM
Sat, Apr 18
61 °FClear.10 mph68%30.09 "Hg10 mi
10:00 PM63 °FClear.13 mph59%30.09 "Hg10 mi
9:00 PM63 °FClear.10 mph59%30.07 "Hg10 mi
8:00 PM64 °FClear.17 mph60%30.07 "Hg10 mi
7:00 PM66 °FClear.17 mph52%30.04 "Hg10 mi
6:00 PM68 °FPassing clouds.22 mph46%30.01 "HgN/A
5:00 PM70 °FPassing clouds.22 mph43%29.98 "HgN/A
4:00 PM72 °FPassing clouds.26 mph41%29.98 "HgN/A
3:00 PM73 °FScattered clouds.29 mph38%29.95 "HgN/A
2:00 PM77 °FScattered clouds.29 mph34%29.95 "HgN/A
1:00 PM77 °FScattered clouds.26 mph34%29.98 "HgN/A
12:00 PM77 °FScattered clouds.29 mph34%30.01 "HgN/A
11:00 AM75 °FScattered clouds.24 mph36%30.04 "HgN/A
10:00 AM77 °FPassing clouds.33 mph34%30.04 "HgN/A
9:00 AM72 °FSunny.31 mph41%30.04 "Hg10 mi
8:00 AM70 °FSunny.26 mph40%30.04 "Hg10 mi
7:00 AM66 °FSunny.24 mph46%30.01 "Hg10 mi
6:00 AM63 °FSunny.20 mph49%30.01 "Hg10 mi
5:00 AM61 °FSunny.13 mph52%29.98 "Hg10 mi
4:00 AM61 °FClear.15 mph52%29.98 "Hg10 mi
3:00 AM61 °FClear.13 mph55%29.98 "Hg10 mi
Weather by CustomWeather, © 2015

See weather overviewHow to use our weather pages